Location: Stuttgart
(48.7824°N, 9.1964°E)
Time: 00:34:41
(UTC+01:00)

ISS - Pass Details

Date: 29 January 2019
Orbit: 403 x 411 km, 51.6° (Epoch: 20 February)

Event Time Altitude Azimuth Distance (km) Brightness Sun altitude
Rises 18:14:38 0° 253° (WSW) 2,329 2.4 -9.9°
Reaches altitude 10° 18:16:43 10° 255° (WSW) 1,472 0.7 -10.2°
Maximum altitude 18:20:01 76° 342° (NNW) 426 -3.8 -10.7°
Enters shadow 18:22:23 18° 67° (ENE) 1,101 -2.3 -11.1°
